sat.trackr.live / text

‹ back to catalog

STARLINK-34461

NORAD 64418 · 2025-129G

PAYLOAD ACTIVE UNKNOWN

§ Identity

Operator
Country
US
Launch date
2025-06-17
Launch site
AFWTR
Launch vehicle
Mass (kg)
RCS (m²)

Purposes: comms

External: N2YO · Heavens-Above · Gunter

§ Orbital elements

Epoch: 2026-09-20T12:04:41.712384Z

Period
94.09 min
Inclination
70.0001°
Eccentricity
0.0003680
Mean motion
15.30421257 rev/d
Perigee alt
472.0 km
Apogee alt
477.1 km
Semi-major
6,852.7 km
B*
2.8081e-4
RAAN
301.0605°
Arg perigee
269.1019°
Mean anomaly
90.9735°
Rev number
7,052

§ Raw data

STARLINK-344611 64418U 25129G   26263.50326056  .00008164  00000+0  28081-3 0  99982 64418  70.0001 301.0605 0003680 269.1019  90.9735 15.30421257 70520

JSON: /api/v1/satellites/64418 · /tle

For live sub-satellite position, see the globe view (requires WebGL).

§ Visibility from observer

Set your observer location to see the next 7 days of passes ≥ 10°. The values pass through the URL so the page stays shareable.

No JS? Fill the form by hand. The geolocation button needs JavaScript.